Regional Weather Roundup
Issued by NWS

Home | Current Version | Previous Version | Graphics & Text | Print | Product List | Glossary On
Versions: 1 2 3 4 5 6 7 8 9 10 11 12 13 14 15 16 17 18 19 20 21 22 23 24 25 26 27 28 29 30 31 32 33 34 35 36 37 38 39 40 41 42 43 44 45 46 47 48 49 50
000
ASUS45 KPSR 010800
RWRAZ

PRELIMINARY ARIZONA REGIONAL HOURLY WEATHER ROUNDUP
NATIONAL WEATHER SERVICE PHOENIX AZ
100 AM MST WED OCT 01 2014

NOTE: FAIR INDICATES FEW OR NO CLOUDS BELOW 12,000 FEET WITH NO
SIGNIFICANT WEATHER AND/OR OBSTRUCTIONS TO VISIBILITY.

AZZ001>003-036-010900-
NORTHWEST ARIZONA

CITY           SKY/WX    TMP DP  RH WIND       PRES   REMARKS
KINGMAN        CLEAR     57  43  59 SE6       29.86F
$$

AZZ004>008-015-016-018-010900-
NORTH CENTRAL ARIZONA

CITY           SKY/WX    TMP DP  RH WIND       PRES   REMARKS
GRAND CANYON   PTCLDY    37  35  92 CALM      30.02F
PRESCOTT       CLEAR     54  37  52 SW9       29.96F
FLAGSTAFF      CLEAR     43  35  73 SW3       30.05F
PAYSON         CLEAR     52  43  71 CALM      29.99R
$$

AZZ009>014-017-010900-
NORTHEAST ARIZONA

CITY           SKY/WX    TMP DP  RH WIND       PRES   REMARKS
WINSLOW        NOT AVBL
SAINT JOHNS    CLEAR     50  36  58 VRB3      29.98S
WINDOW ROCK    CLEAR     41  35  79 CALM      30.03R
$$

AZZ023-010900-
GREATER PHOENIX AREA

CITY           SKY/WX    TMP DP  RH WIND       PRES   REMARKS
PHOENIX        CLEAR     73  52  47 E7        29.75R
DEER VALLEY    CLEAR     69  48  47 N8        29.77S
SCOTTSDALE     CLEAR     71  49  45 CALM      29.78F
MESA-GATEWAY   CLEAR     63  52  67 SE6       29.79S
$$

AZZ027-028-010900-
SOUTHWEST MARICOPA COUNTY AND PINAL COUNTY

CITY           SKY/WX    TMP DP  RH WIND       PRES   REMARKS
CASA GRANDE    CLEAR     64  43  45 CALM      29.78S
$$

AZZ503-504-507>509-010900-
SOUTHEAST ARIZONA

CITY           SKY/WX    TMP DP  RH WIND       PRES   REMARKS
TUCSON         CLEAR     67  43  41 S7        29.87S
DAVIS-MONTHAN  CLEAR     64  41  43 SE8       29.85S
NOGALES        CLEAR     54  44  69 E3        29.94F
SIERRA VISTA   CLEAR     57  43  58 CALM      29.97F
SAFFORD        CLEAR     58  37  45 SE5       29.86S
$$

AZZ020-021-025-026-031-010900-
SOUTHWEST ARIZONA

CITY           SKY/WX    TMP DP  RH WIND       PRES   REMARKS
YUMA           CLEAR     78  48  34 SE3       29.69F
$$

CAZ031-033-041-043-047-048-061-010900-
SOUTHERN CALIFORNIA

CITY           SKY/WX    TMP DP  RH WIND       PRES   REMARKS
DOWNTOWN L.A.  CLEAR     66  61  84 CALM      29.76F
L.A. AIRPORT   CLEAR     66  62  87 SE3       29.77S
SAN DIEGO      MOCLDY    69  65  86 S6        29.79F
BURBANK        CLEAR     67  56  67 E6        29.77F
ONTARIO        CLEAR     67  55  65 W3        29.79S
RIVERSIDE      CLEAR     68  55  63 CALM      29.79S
PALM SPRINGS   CLEAR     78  46  32 CALM      29.71F
EL CENTRO NAS  CLEAR     79  44  28 SW10      29.66F
IMPERIAL       CLEAR     75  47  36 SW3       29.66F
BLYTHE         CLEAR     75  42  30 CALM      29.69F
$$

NVZ020-UTZ003-010900-
SOUTHERN NEVADA-UTAH

CITY           SKY/WX    TMP DP  RH WIND       PRES   REMARKS
LAS VEGAS      NOT AVBL
SALT LAKE CITY LGT RAIN  51  47  86 W7        29.97S
$$

NMZ009-TXZ055-010900-
NEW MEXICO-WEST TEXAS

CITY           SKY/WX    TMP DP  RH WIND       PRES   REMARKS
ALBUQUERQUE    CLEAR     54  33  45 CALM      29.96S
EL PASO        CLEAR     68  38  33 SW5       29.89S
$$


........................KEY........................
SKY/WX - SKY CONDITION/WEATHER
TMP    - TEMPERATURE IN FAHRENHEIT
DP     - DEW POINT IN FAHRENHEIT
RH     - RELATIVE HUMIDITY IN PERCENT
WIND   - DIRECTION AND SPEED IN MILES PER HOUR (MPH)
VRB    - VARIABLE WIND DIRECTION
PRES   - MEAN SEA LEVEL PRESSURE IN INCHES OF MERCURY
         F - FALLING PRESSURE   R - RISING PRESSURE
         S - STEADY PRESSURE
VSB    - VISIBILITY IN MILES
HX     - HEAT INDEX IN FAHRENHEIT
WCI    - WIND CHILL INDEX IN FAHRENHEIT
TC     - TEMPERATURE IN CELSIUS WHICH IS ALSO KNOWN AS
         TEMPERATURE IN CENTIGRADE
AFB    - AIR FORCE BASE
         LUKE AFB IS LUKE AIR FORCE BASE
         DAVIS-MONTHAN IS DAVIS-MONTHAN AIR FORCE BASE
NAS    - NAVAL AIR STATION
         EL CENTRO NAS IS EL CENTRO NAVAL AIR STATION
N/A    - NOT AVAILABLE


USA.gov is the U.S. government's official web portal to all federal, state and local government web resources and services.